[[{"header":{"parameterUnit":"m.s-1","parameterCategory":2,"la1":30.2991,"la2":30.254,"lo1":-89.0895,"lo2":-89.0444,"dy":0.0017,"dx":0.0017,"nx":28,"ny":28,"refTime":"2025-06-16T03:00:00:Z","depth":"0","parameterNumber":2,"parameterNumberName":"U-component_of_CURRENTS"},"data":[0,0,0,0,0,0,0,0,0,0,0,0,0,0,0,0,0,0,0,0,0,0,0,0,0,0,0,0,0,0,0,0,0,0,0,0,0,0,0,0,0,0,0,0,0,0,0,0,0,0,0,0,0,0,0,0,0,0,0.2691,0.2692,0,0.2766,0.2767,0.2767,0.2787,0.2787,0.2786,0.2786,0.2835,0.2837,0.2838,0,0,0,0,0,0,0,0,0,0,0,0,0,0.2604,0.2605,0.2691,0.2692,0.2693,0.2766,0.2767,0.2768,0.2787,0.2787,0.2786,0.2786,0.2835,0.2837,0.2838,0,0,0,0,0,0,0,0,0,0,0,0,0,0.2655,0.2605,0.2691,0.2712,0.2715,0.2766,0.2767,0.2768,0.2787,0.2787,0.2786,0.2786,0.2834,0.2836,0.2839,0.2864,0,0,0.2846,0.2847,0,0,0,0,0,0,0,0,0.2652,0.2658,0.2708,0.2711,0.2714,0.2768,0.2754,0.2799,0.2787,0.2759,0.2786,0.2785,0.2811,0.2816,0.283,0.2866,0.2869,0.2846,0.2848,0.2849,0.285,0,0,0,0,0,0,0,0.2649,0.2655,0.2719,0.2709,0.2713,0.2732,0.2738,0.2763,0.2785,0.2761,0.2763,0.2773,0.2813,0.2827,0.2831,0.2869,0.2846,0.2849,0.285,0.2851,0.2942,0.2943,0,0,0,0,0,0,0.2641,0.2652,0.2717,0.2722,0.2683,0.2734,0.2741,0.275,0.2786,0.2791,0.2774,0.2774,0.2823,0.2828,0.2832,0.289,0.2849,0.2851,0.2853,0.2941,0.2942,0.2943,0,0,0,0,0,0,0.2638,0.2646,0.2714,0.2689,0.27,0.2736,0.2746,0.2752,0.2769,0.2796,0.2801,0.2785,0.2823,0.2829,0.2856,0.2891,0.2852,0.2855,0.294,0.2942,0.2943,0.2989,0,0,0,0,0,0,0.2636,0.2644,0.2645,0.2689,0.2701,0.2751,0.2747,0.2754,0.2777,0.2778,0.2808,0.2812,0.2823,0.2853,0.2859,0.2893,0.2856,0.2939,0.2941,0.2942,0.2986,0.2991,0.2996,0,0,0,0,0,0.2632,0.2638,0.2645,0.2653,0.2702,0.2752,0.276,0.2783,0.2778,0.2794,0.2807,0.2811,0.2869,0.2855,0.2862,0.2899,0.2938,0.294,0.2942,0.2984,0.299,0.2996,0,0,0,0,0,0,0.2598,0.2643,0.265,0.2668,0.2709,0.2756,0.2772,0.2785,0.281,0.2807,0.2822,0.2828,0.2868,0.2872,0.2857,0.2928,0.2905,0.2908,0.2934,0.294,0.2945,0.2956,0.2858,0,0,0,0,0,0.2592,0.2609,0.2657,0.2672,0.2693,0.2731,0.2752,0.2772,0.2801,0.2812,0.2834,0.2854,0.2884,0.29,0.2924,0.2962,0.3016,0.2989,0.2994,0.2998,0.3011,0.3115,0.3132,0.295,0.295,0.295,0,0,0.2582,0.2609,0.2618,0.2666,0.2698,0.2744,0.2743,0.2781,0.2819,0.2813,0.2862,0.2874,0.2896,0.2941,0.296,0.2949,0.3084,0.3001,0.3005,0.3016,0.3119,0.3137,0.3153,0.2952,0.2952,0.2951,0,0,0.2587,0.2599,0.2623,0.2663,0.2715,0.2748,0.276,0.2813,0.2834,0.288,0.2887,0.2917,0.2959,0.2989,0.3006,0.3053,0.3107,0.3059,0.3099,0.32,0.3216,0.3231,0.3353,0.3379,0.3062,0.3063,0.3063,0,0.2574,0.2613,0.2639,0.2682,0.2719,0.2752,0.2799,0.2832,0.2886,0.2912,0.2899,0.298,0.2988,0.3058,0.3068,0.3068,0.3142,0.3074,0.321,0.3225,0.324,0.3361,0.3389,0.3065,0.3065,0.3064,0.3064,0,0.2608,0.2644,0.2665,0.2731,0.2772,0.2817,0.2873,0.2911,0.2934,0.2969,0.3035,0.3054,0.3107,0.3111,0.3102,0.3207,0.3234,0.3206,0.3198,0.3262,0.3385,0.3413,0.3068,0.3068,0.3067,0.3066,0,0,0.2577,0.267,0.2678,0.272,0.2803,0.2841,0.2909,0.2983,0.3028,0.3074,0.315,0.3183,0.3196,0.3216,0.3222,0.3291,0.3452,0.3292,0.3296,0.3422,0.3713,0.3734,0.3767,0.3457,0.3461,0.3465,0.3769,0,0.2601,0.268,0.2726,0.2808,0.2858,0.2915,0.2975,0.3041,0.3092,0.3171,0.3212,0.3277,0.3239,0.3271,0.334,0.3423,0.3524,0.3375,0.3625,0.3633,0.3651,0.3799,0.3715,0.3978,0.3796,0.3801,0.3804,0,0.2624,0.2678,0.2754,0.2854,0.288,0.2926,0.3028,0.3088,0.3196,0.324,0.332,0.3364,0.3481,0.343,0.3644,0.3558,0.3647,0.3705,0.3718,0.374,0.3706,0.3879,0.4036,0.3886,0.3848,0.3844,0.3841,0,0.2592,0.2698,0.2755,0.2791,0.2904,0.2941,0.2999,0.3097,0.3173,0.3293,0.3384,0.3497,0.3603,0.3713,0.3844,0.3765,0.4097,0.4003,0.4118,0.4122,0.41,0.4094,0.4146,0.4179,0.4178,0.4177,0.4176,0,0.2603,0.2651,0.2738,0.2772,0.2843,0.2918,0.3006,0.3074,0.3211,0.3316,0.3418,0.3552,0.3682,0.3876,0.3942,0.4159,0.4199,0.4181,0.4217,0.4115,0.4106,0.4009,0.3937,0.4189,0.4186,0.4184,0.4182,0,0.2567,0.2625,0.2697,0.2798,0.283,0.2874,0.3019,0.3086,0.3219,0.3377,0.3437,0.3668,0.3912,0.4073,0.4297,0.4322,0.4387,0.4547,0.4433,0.4448,0.4337,0.4271,0.4272,0.4148,0.4713,0.4715,0.4718,0,0.256,0.2588,0.2692,0.273,0.2774,0.2859,0.2919,0.3061,0.3144,0.3441,0.352,0.3832,0.4022,0.4408,0.4535,0.4739,0.4537,0.4747,0.4549,0.4376,0.433,0.4105,0.398,0.4561,0.4562,0.4562,0.4563,0,0.2547,0.2573,0.2631,0.2704,0.2762,0.2842,0.2937,0.3017,0.3196,0.3364,0.3611,0.3804,0.4211,0.4405,0.4695,0.4776,0.4515,0.4762,0.4616,0.4265,0.3996,0.3877,0.4324,0.4568,0.4568,0.4567,0.4567,0.4567,0.2528,0.2556,0.2621,0.2686,0.2745,0.2802,0.2842,0.2966,0.3117,0.3336,0.3576,0.3827,0.4196,0.4595,0.4663,0.4696,0.4587,0.4558,0.4521,0.4328,0.4105,0.4578,0.4819,0.482,0.4821,0.4821,0.4822,0,0.2513,0.2548,0.2607,0.2668,0.2694,0.2748,0.2837,0.2866,0.2988,0.3241,0.3459,0.3834,0.411,0.4354,0.4562,0.4451,0.4225,0.4334,0.3972,0.3878,0.4364,0.4248,0.4333,0.4333,0.4333,0.4333,0.4334,0.4334,0.251,0.2549,0.258,0.2605,0.2633,0.2641,0.2668,0.2722,0.286,0.3077,0.3271,0.351,0.3894,0.4271,0.4278,0.4198,0.3824,0.3751,0.3648,0.3963,0.3977,0.3989,0.3858,0.386,0.386,0.3,0.2994,0.299]},{"header":{"parameterUnit":"m.s-1","parameterCategory":2,"la1":30.2991,"la2":30.254,"lo1":-89.0895,"lo2":-89.0444,"dy":0.0017,"dx":0.0017,"nx":28,"ny":28,"refTime":"2025-06-16T03:00:00:Z","depth":"0","parameterNumber":3,"parameterNumberName":"V-component_of_CURRENTS"},"data":[0,0,0,0,0,0,0,0,0,0,0,0,0,0,0,0,0,0,0,0,0,0,0,0,0,0,0,0,0,0,0,0,0,0,0,0,0,0,0,0,0,0,0,0,0,0,0,0,0,0,0,0,0,0,0,0,0,0,0.0005,0.0004,0,-0.005,-0.0051,-0.0051,-0.0085,-0.0085,-0.0085,-0.0085,-0.0141,-0.0142,-0.0143,0,0,0,0,0,0,0,0,0,0,0,0,0,0.0046,0.0045,0.0005,0.0004,0.0004,-0.005,-0.0051,-0.0052,-0.0085,-0.0085,-0.0085,-0.0085,-0.014,-0.0142,-0.0143,0,0,0,0,0,0,0,0,0,0,0,0,0,0.0013,0.0045,0.0005,-0.002,-0.0022,-0.005,-0.0051,-0.0052,-0.0085,-0.0085,-0.0085,-0.0085,-0.014,-0.0142,-0.0144,-0.015,0,0,-0.015,-0.0151,0,0,0,0,0,0,0,0,0.0015,0.0012,-0.0015,-0.0018,-0.0021,-0.0061,-0.0057,-0.0085,-0.0084,-0.0061,-0.0085,-0.0085,-0.0114,-0.0118,-0.0128,-0.0153,-0.0155,-0.015,-0.0151,-0.0152,-0.0152,0,0,0,0,0,0,0,0.0018,0.0014,-0.0017,-0.0016,-0.002,-0.004,-0.0045,-0.0063,-0.0085,-0.0063,-0.0065,-0.0072,-0.0116,-0.0126,-0.0129,-0.0156,-0.015,-0.0152,-0.0153,-0.0154,-0.0196,-0.0196,0,0,0,0,0,0,0.0026,0.0016,-0.0015,-0.0018,-0.0004,-0.0041,-0.0046,-0.0048,-0.0085,-0.0091,-0.0072,-0.0073,-0.0122,-0.0127,-0.0131,-0.0133,-0.0152,-0.0154,-0.0155,-0.0196,-0.0196,-0.0196,0,0,0,0,0,0,0.0027,0.0024,-0.0013,-0.0003,-0.0009,-0.0041,-0.0043,-0.0049,-0.0056,-0.0092,-0.0098,-0.0073,-0.0123,-0.0128,-0.0146,-0.0135,-0.0155,-0.0156,-0.0196,-0.0196,-0.0196,-0.0141,0,0,0,0,0,0,0.0029,0.0025,0.0027,-0.0002,-0.0009,-0.0018,-0.0043,-0.005,-0.006,-0.0063,-0.0095,-0.0101,-0.0123,-0.0143,-0.0148,-0.0139,-0.0158,-0.0196,-0.0196,-0.0196,-0.0143,-0.0139,-0.0136,0,0,0,0,0,0.0031,0.0042,0.0028,0.0024,-0.0005,-0.0018,-0.0023,-0.0047,-0.006,-0.0056,-0.0084,-0.0099,-0.0146,-0.0144,-0.015,-0.0141,-0.0196,-0.0196,-0.0196,-0.0145,-0.014,-0.0136,0,0,0,0,0,0,0.0067,0.0039,0.0023,0.0027,0.0008,-0.0023,-0.0022,-0.0042,-0.0061,-0.0065,-0.0099,-0.0106,-0.0118,-0.0139,-0.0136,-0.0155,-0.0174,-0.0175,-0.0132,-0.0128,-0.0125,-0.01,-0.016,0,0,0,0,0,0.0074,0.0072,0.0043,0.0046,0.004,0.0008,-0.0,-0.0017,-0.004,-0.0049,-0.0073,-0.01,-0.0123,-0.0132,-0.0155,-0.0162,-0.0165,-0.0162,-0.0158,-0.0155,-0.014,-0.0127,-0.012,-0.0196,-0.0196,-0.0196,0,0,0.0089,0.0073,0.0072,0.0053,0.0037,0.0038,0.0003,-0.0004,-0.0004,-0.0052,-0.0056,-0.0088,-0.0123,-0.0134,-0.0141,-0.0149,-0.0138,-0.0155,-0.0151,-0.0138,-0.0126,-0.0118,-0.0111,-0.0196,-0.0196,-0.0196,0,0,0.0124,0.0104,0.0117,0.0104,0.0083,0.0063,0.0064,0.0036,0.0023,0.0011,-0.0026,-0.0049,-0.008,-0.0103,-0.0119,-0.0109,-0.0121,-0.0121,-0.0079,-0.0067,-0.006,-0.0054,-0.0056,-0.0051,-0.0117,-0.0117,-0.0117,0,0.0143,0.0152,0.0119,0.013,0.0125,0.008,0.0096,0.0076,0.0045,0.0041,0.002,-0.0019,-0.0062,-0.0066,-0.0077,-0.0098,-0.0097,-0.0091,-0.006,-0.0054,-0.0048,-0.0052,-0.0047,-0.0114,-0.0115,-0.0115,-0.0115,0,0.0187,0.0192,0.0201,0.0196,0.0188,0.0193,0.0161,0.0151,0.0127,0.0107,0.0098,0.0048,0.0031,0.0004,-0.004,-0.0026,-0.004,-0.0056,-0.0064,-0.0037,-0.0044,-0.0039,-0.0111,-0.0111,-0.0112,-0.0113,0,0,0.0237,0.0234,0.0236,0.0245,0.0223,0.0224,0.0221,0.0211,0.0228,0.0188,0.0224,0.0146,0.0125,0.0104,0.0056,0.0049,0.0061,0.0011,0.0011,0.0021,0.0086,0.0079,0.0083,0.0058,0.0059,0.006,0.0062,0,0.0283,0.032,0.0299,0.033,0.0347,0.0306,0.0318,0.03,0.0282,0.0307,0.0255,0.027,0.0163,0.0173,0.0141,0.0101,0.0078,0.0062,0.0048,0.0047,0.0049,0.0091,0.0089,0.0092,0.0067,0.0068,0.0068,0,0.0335,0.0351,0.0392,0.0406,0.0411,0.042,0.0432,0.0432,0.0435,0.0436,0.0428,0.0407,0.0387,0.0309,0.0241,0.024,0.0158,0.0113,0.0112,0.0095,0.0051,0.0061,0.0102,-0.0162,0.0075,0.0075,0.0074,0,0.0391,0.0415,0.045,0.0452,0.0462,0.0472,0.0473,0.0472,0.0518,0.0533,0.0611,0.0547,0.0588,0.0474,0.0356,0.0309,0.0304,0.0231,0.0141,0.0139,0.013,0.0126,-0.0071,0.0179,0.0179,0.0179,0.0179,0,0.0447,0.0476,0.048,0.0499,0.0558,0.0531,0.0604,0.0593,0.0656,0.0769,0.0691,0.0806,0.0638,0.0616,0.0441,0.0331,0.0368,0.0167,0.0151,0.0146,0.0143,-0.0092,-0.0229,0.0179,0.0179,0.0179,0.0179,0,0.0506,0.0504,0.0552,0.0571,0.0586,0.0623,0.071,0.0783,0.0816,0.0977,0.1015,0.1036,0.101,0.083,0.0686,0.0489,0.0215,0.029,0.0289,0.0272,-0.0088,-0.0219,-0.038,-0.05,0.0184,0.0184,0.0184,0,0.0542,0.0568,0.0615,0.0668,0.0681,0.0747,0.0824,0.0858,0.0968,0.1144,0.1261,0.1295,0.1361,0.1136,0.0806,0.0522,0.0263,0.0295,0.0184,-0.0092,-0.025,-0.0349,-0.0447,0.0184,0.0184,0.0184,0.0184,0,0.0616,0.0626,0.0673,0.0786,0.0863,0.0971,0.1082,0.1206,0.1304,0.1465,0.1685,0.1757,0.1557,0.1318,0.0905,0.0655,0.0106,0.0286,0.0009,-0.0252,-0.0378,-0.0504,0.0145,0.0184,0.0184,0.0184,0.0184,0.0184,0.0682,0.0739,0.0815,0.0923,0.1031,0.1204,0.1326,0.1494,0.171,0.1977,0.2004,0.2156,0.1724,0.1184,0.0824,0.0106,0.0112,-0.0131,-0.0261,-0.0332,-0.0471,0.0174,0.0188,0.0188,0.0188,0.0188,0.0188,0,0.078,0.0853,0.0962,0.1106,0.1258,0.1286,0.152,0.1673,0.1961,0.2201,0.2387,0.2261,0.1695,0.1068,0.015,-0.0343,-0.0572,-0.0641,-0.0818,-0.0888,-0.0303,-0.0331,-0.0438,-0.0438,-0.0438,-0.0438,-0.0437,-0.0437,0.0843,0.0969,0.1026,0.1284,0.1398,0.1615,0.1759,0.1996,0.2199,0.2512,0.262,0.2659,0.2132,0.0486,-0.0655,-0.0924,-0.1321,-0.1357,-0.1554,-0.1212,-0.1176,-0.1142,-0.1204,-0.1493,-0.1494,-0.2095,-0.2101,-0.2106]}],[{"header":{"parameterUnit":"m.s-1","parameterCategory":2,"la1":30.2991,"la2":30.254,"lo1":-89.0895,"lo2":-89.0444,"dy":0.0017,"dx":0.0017,"nx":28,"ny":28,"refTime":"2025-06-16T03:00:00:Z","depth":"2","parameterNumber":2,"parameterNumberName":"U-component_of_CURRENTS"},"data":[0,0,0,0,0,0,0,0,0,0,0,0,0,0,0,0,0,0,0,0,0,0,0,0,0,0,0,0,0,0,0,0,0,0,0,0,0,0,0,0,0,0,0,0,0,0,0,0,0,0,0,0,0,0,0,0,0,0,0.2292,0.2293,0,0.2374,0.2375,0.2375,0.2391,0.2391,0.239,0.239,0.2429,0.243,0.2431,0,0,0,0,0,0,0,0,0,0,0,0,0,0.2159,0.2161,0.2292,0.2293,0.2295,0.2374,0.2375,0.2376,0.2391,0.2391,0.239,0.239,0.2429,0.243,0.2432,0,0,0,0,0,0,0,0,0,0,0,0,0,0.2223,0.2162,0.2292,0.2315,0.2318,0.2374,0.2375,0.2376,0.2391,0.239,0.239,0.239,0.2428,0.243,0.2432,0.2452,0,0,0.2438,0.2439,0,0,0,0,0,0,0,0,0.2219,0.2227,0.231,0.2314,0.2318,0.2376,0.2343,0.2401,0.2391,0.2359,0.239,0.239,0.241,0.2414,0.2424,0.2454,0.2455,0.2438,0.2439,0.244,0.244,0,0,0,0,0,0,0,0.2215,0.2224,0.232,0.2312,0.2316,0.2326,0.2334,0.2354,0.2382,0.2362,0.2364,0.238,0.2411,0.2423,0.2425,0.2456,0.2438,0.244,0.2441,0.2441,0.2553,0.2555,0,0,0,0,0,0,0.2213,0.222,0.2318,0.2323,0.2271,0.2329,0.2337,0.2354,0.2382,0.2388,0.238,0.2381,0.2419,0.2423,0.2427,0.2497,0.244,0.2442,0.2443,0.2551,0.2553,0.2555,0,0,0,0,0,0,0.221,0.2221,0.2314,0.2276,0.2289,0.2332,0.235,0.2356,0.2372,0.2398,0.2402,0.2391,0.2419,0.2424,0.2431,0.2496,0.2443,0.2444,0.2549,0.2552,0.2554,0.2608,0,0,0,0,0,0,0.2206,0.222,0.2227,0.2276,0.2292,0.2332,0.2351,0.2358,0.2384,0.2385,0.2409,0.2412,0.2419,0.2427,0.2432,0.2498,0.2446,0.2547,0.255,0.2553,0.2604,0.2612,0.2619,0,0,0,0,0,0.2201,0.2214,0.2227,0.2239,0.2302,0.2333,0.234,0.2366,0.2385,0.2381,0.2396,0.2411,0.2455,0.2429,0.2435,0.2503,0.2545,0.2549,0.2553,0.26,0.261,0.2619,0,0,0,0,0,0,0.2158,0.2219,0.2233,0.2263,0.2289,0.2336,0.2353,0.2371,0.2383,0.24,0.2409,0.2412,0.2439,0.246,0.2432,0.2546,0.2514,0.2519,0.2548,0.2557,0.2565,0.2591,0.2447,0,0,0,0,0,0.2154,0.2183,0.2228,0.2252,0.2271,0.2313,0.2332,0.2357,0.2382,0.2389,0.2404,0.2438,0.2464,0.2496,0.2502,0.2565,0.2593,0.2621,0.2629,0.2635,0.2661,0.2707,0.2722,0.2569,0.2569,0.2569,0,0,0.2147,0.2185,0.2201,0.2245,0.2279,0.2321,0.2323,0.2366,0.2409,0.2392,0.2442,0.244,0.2473,0.2527,0.255,0.2558,0.2701,0.264,0.2645,0.2668,0.2713,0.2728,0.2741,0.2571,0.2571,0.257,0,0,0.2155,0.2182,0.2211,0.2238,0.2295,0.2329,0.2341,0.2392,0.2418,0.2456,0.2463,0.2487,0.2537,0.2576,0.2605,0.2663,0.2709,0.2693,0.2792,0.2836,0.2849,0.2861,0.2947,0.2965,0.2734,0.2734,0.2734,0,0.2144,0.2194,0.2219,0.2258,0.2299,0.2336,0.2384,0.2421,0.2464,0.2505,0.2477,0.2565,0.2566,0.2669,0.2694,0.2683,0.2734,0.2751,0.2846,0.2858,0.2869,0.2954,0.2974,0.2737,0.2737,0.2737,0.2736,0,0.2177,0.2221,0.2244,0.2316,0.2351,0.2399,0.2461,0.2501,0.2541,0.2587,0.2658,0.2654,0.2719,0.2735,0.2736,0.2848,0.2867,0.2817,0.282,0.2888,0.2973,0.2993,0.2742,0.2741,0.274,0.2739,0,0,0.2154,0.2249,0.226,0.2305,0.2393,0.2428,0.2516,0.2608,0.2686,0.2719,0.2809,0.2851,0.2863,0.2896,0.2906,0.2965,0.3075,0.2953,0.2954,0.3037,0.323,0.317,0.3186,0.3049,0.3052,0.3055,0.3269,0,0.218,0.2257,0.2308,0.2397,0.2448,0.252,0.2599,0.2689,0.2758,0.2843,0.2891,0.2957,0.2928,0.2966,0.302,0.3046,0.3127,0.3025,0.3155,0.316,0.3095,0.3206,0.2902,0.3061,0.3289,0.3292,0.3294,0,0.2201,0.2257,0.2339,0.2459,0.2491,0.255,0.2696,0.2772,0.291,0.2964,0.3056,0.3087,0.3198,0.3124,0.3264,0.3211,0.3242,0.3258,0.3265,0.3205,0.3136,0.3025,0.3088,0.3328,0.3325,0.3323,0.332,0,0.2173,0.2285,0.2353,0.2389,0.2522,0.2585,0.2668,0.2812,0.2915,0.3047,0.3143,0.3239,0.3316,0.3357,0.3411,0.3355,0.3551,0.3459,0.345,0.3448,0.3213,0.3184,0.3559,0.3559,0.3558,0.3558,0.3557,0,0.2181,0.2237,0.2343,0.2379,0.2489,0.2579,0.2723,0.2813,0.2979,0.3113,0.3206,0.332,0.3378,0.3494,0.3492,0.3566,0.3624,0.351,0.3505,0.3227,0.3198,0.3427,0.3408,0.3566,0.3564,0.3562,0.3561,0,0.2147,0.2207,0.2294,0.2427,0.2477,0.2554,0.2759,0.2863,0.3024,0.3199,0.3256,0.344,0.357,0.3647,0.3733,0.3691,0.3732,0.3738,0.3438,0.3392,0.3586,0.3568,0.3754,0.3754,0.3754,0.3754,0.3753,0,0.2138,0.217,0.2314,0.2374,0.2439,0.2575,0.2679,0.2856,0.2967,0.3259,0.3328,0.3545,0.3628,0.3784,0.3723,0.3751,0.3806,0.3518,0.3321,0.3633,0.361,0.3592,0.3575,0.3055,0.3049,0.3044,0.304,0,0.2118,0.2163,0.2244,0.2372,0.2471,0.2587,0.2734,0.2827,0.3036,0.3194,0.3381,0.3477,0.3617,0.349,0.3547,0.35,0.3474,0.3422,0.3844,0.3039,0.2986,0.2959,0.2963,0.2998,0.3002,0.3005,0.3008,0.3009,0.2105,0.2166,0.2268,0.238,0.248,0.256,0.2619,0.2766,0.2911,0.3046,0.3214,0.324,0.3283,0.3167,0.311,0.3074,0.3273,0.3126,0.3135,0.3151,0.3018,0.2965,0.2953,0.2957,0.296,0.2963,0.2966,0,0.2107,0.2183,0.2276,0.2385,0.2434,0.2515,0.2629,0.2635,0.2724,0.2818,0.2894,0.2657,0.2606,0.2679,0.2537,0.2558,0.2467,0.2486,0.2334,0.2379,0.2419,0.2242,0.1976,0.1973,0.197,0.1967,0,0,0.2117,0.2191,0.2237,0.2291,0.2364,0.2379,0.2406,0.2409,0.2438,0.2351,0.2307,0.2418,0.2572,0.2214,0.2198,0.2072,0.2198,0.1994,0.2789,0.2653,0.2688,0.2797,0.2579,0,0,0,0,0]},{"header":{"parameterUnit":"m.s-1","parameterCategory":2,"la1":30.2991,"la2":30.254,"lo1":-89.0895,"lo2":-89.0444,"dy":0.0017,"dx":0.0017,"nx":28,"ny":28,"refTime":"2025-06-16T03:00:00:Z","depth":"2","parameterNumber":3,"parameterNumberName":"V-component_of_CURRENTS"},"data":[0,0,0,0,0,0,0,0,0,0,0,0,0,0,0,0,0,0,0,0,0,0,0,0,0,0,0,0,0,0,0,0,0,0,0,0,0,0,0,0,0,0,0,0,0,0,0,0,0,0,0,0,0,0,0,0,0,0,-0.0121,-0.0121,0,-0.0173,-0.0174,-0.0174,-0.0209,-0.0209,-0.0209,-0.0209,-0.0278,-0.0279,-0.0281,0,0,0,0,0,0,0,0,0,0,0,0,0,-0.0088,-0.0088,-0.0121,-0.0121,-0.0122,-0.0173,-0.0174,-0.0174,-0.0209,-0.0209,-0.0209,-0.0209,-0.0277,-0.0279,-0.0281,0,0,0,0,0,0,0,0,0,0,0,0,0,-0.0118,-0.0088,-0.0121,-0.0144,-0.0147,-0.0173,-0.0174,-0.0175,-0.0209,-0.0209,-0.0209,-0.0209,-0.0276,-0.0279,-0.0281,-0.0294,0,0,-0.0289,-0.029,0,0,0,0,0,0,0,0,-0.0116,-0.0119,-0.014,-0.0143,-0.0145,-0.0184,-0.0187,-0.0215,-0.0209,-0.0186,-0.0209,-0.0209,-0.0247,-0.0252,-0.0263,-0.0297,-0.03,-0.0289,-0.0291,-0.0292,-0.0293,0,0,0,0,0,0,0,-0.0114,-0.0117,-0.0142,-0.0141,-0.0144,-0.0165,-0.0169,-0.0193,-0.0216,-0.0188,-0.019,-0.0195,-0.0249,-0.026,-0.0264,-0.0301,-0.0289,-0.0292,-0.0293,-0.0294,-0.0343,-0.0343,0,0,0,0,0,0,-0.0103,-0.0115,-0.0141,-0.0144,-0.013,-0.0165,-0.017,-0.0172,-0.0215,-0.0222,-0.0194,-0.0196,-0.0256,-0.0261,-0.0267,-0.0277,-0.0292,-0.0295,-0.0296,-0.0343,-0.0343,-0.0342,0,0,0,0,0,0,-0.0102,-0.0105,-0.0139,-0.013,-0.0136,-0.0165,-0.0167,-0.0173,-0.0182,-0.022,-0.0227,-0.0198,-0.0256,-0.0263,-0.0282,-0.028,-0.0296,-0.0298,-0.0343,-0.0343,-0.0343,-0.0301,0,0,0,0,0,0,-0.0101,-0.0104,-0.0101,-0.0129,-0.0136,-0.0148,-0.0167,-0.0174,-0.0184,-0.0187,-0.0225,-0.0232,-0.0257,-0.0278,-0.0284,-0.0284,-0.03,-0.0344,-0.0343,-0.0343,-0.0303,-0.0299,-0.0296,0,0,0,0,0,-0.01,-0.0089,-0.0101,-0.0104,-0.0131,-0.0147,-0.0152,-0.0175,-0.0184,-0.0185,-0.0209,-0.023,-0.0279,-0.0279,-0.0287,-0.0288,-0.0344,-0.0343,-0.0343,-0.0304,-0.03,-0.0296,0,0,0,0,0,0,-0.0071,-0.0093,-0.0106,-0.0102,-0.0122,-0.0152,-0.0152,-0.017,-0.0191,-0.0191,-0.0228,-0.0236,-0.0254,-0.0274,-0.0273,-0.03,-0.0315,-0.0316,-0.0283,-0.0279,-0.0276,-0.0246,-0.0302,0,0,0,0,0,-0.0064,-0.0064,-0.009,-0.0088,-0.0094,-0.0123,-0.0132,-0.0148,-0.0169,-0.0179,-0.0206,-0.0232,-0.0258,-0.027,-0.0295,-0.0308,-0.0326,-0.0313,-0.0309,-0.0306,-0.0287,-0.0317,-0.0314,-0.0341,-0.0341,-0.0341,0,0,-0.0052,-0.0064,-0.0064,-0.0082,-0.0098,-0.0099,-0.0129,-0.0136,-0.0139,-0.0183,-0.0192,-0.0224,-0.026,-0.0276,-0.0285,-0.0291,-0.031,-0.0306,-0.0303,-0.0284,-0.0316,-0.0313,-0.0311,-0.034,-0.034,-0.034,0,0,-0.0023,-0.0038,-0.0027,-0.004,-0.0059,-0.0077,-0.0076,-0.0104,-0.0118,-0.0132,-0.0166,-0.0188,-0.0227,-0.025,-0.0268,-0.026,-0.0295,-0.0275,-0.0232,-0.0262,-0.026,-0.0258,-0.0285,-0.0286,-0.027,-0.027,-0.027,0,-0.0007,0.0001,-0.0026,-0.0021,-0.0024,-0.0063,-0.0051,-0.0072,-0.0103,-0.0105,-0.0126,-0.017,-0.0211,-0.0223,-0.0228,-0.0252,-0.0274,-0.0245,-0.0257,-0.0256,-0.0255,-0.0282,-0.0284,-0.0268,-0.0268,-0.0268,-0.0269,0,0.0026,0.0032,0.0039,0.0033,0.0024,0.0029,-0.0002,-0.0013,-0.0035,-0.0051,-0.0066,-0.0116,-0.0135,-0.0163,-0.0198,-0.0209,-0.0229,-0.0253,-0.0265,-0.0249,-0.028,-0.0282,-0.0265,-0.0266,-0.0266,-0.0267,0,0,0.0066,0.0065,0.0067,0.0075,0.0055,0.0053,0.0047,0.0038,0.0057,0.0011,0.0035,-0.0035,-0.0051,-0.0071,-0.0117,-0.015,-0.0182,-0.0195,-0.0198,-0.0217,-0.0246,-0.0292,-0.0299,-0.0212,-0.0212,-0.0212,-0.0272,0,0.0103,0.0133,0.0117,0.0141,0.0156,0.012,0.0128,0.0112,0.01,0.0113,0.0058,0.0064,-0.0019,-0.0016,-0.0067,-0.014,-0.0184,-0.0162,-0.026,-0.0263,-0.0302,-0.0302,-0.0285,-0.0341,-0.0275,-0.0275,-0.0276,0,0.0142,0.0159,0.0194,0.0209,0.0213,0.022,0.0235,0.0234,0.0232,0.0231,0.0218,0.0189,0.0144,0.0076,-0.0049,-0.0031,-0.0134,-0.0204,-0.0208,-0.0262,-0.0313,-0.0345,-0.0348,-0.028,-0.028,-0.0279,-0.0279,0,0.019,0.0211,0.0244,0.0245,0.0256,0.0265,0.027,0.0275,0.0318,0.0318,0.0378,0.0294,0.0298,0.0155,-0.0,-0.0023,-0.0134,-0.0184,-0.0324,-0.0329,-0.0337,-0.0342,-0.0279,-0.0279,-0.0278,-0.0278,-0.0278,0,0.0235,0.0261,0.0271,0.0287,0.0342,0.0322,0.0395,0.0385,0.0441,0.0534,0.0454,0.0511,0.0319,0.0236,0.0052,-0.0134,-0.01,-0.0309,-0.0346,-0.0324,-0.0327,-0.0289,-0.029,-0.0281,-0.028,-0.028,-0.0279,0,0.028,0.0285,0.0324,0.0348,0.0367,0.04,0.049,0.0559,0.0591,0.0718,0.0738,0.0688,0.056,0.0361,0.0139,-0.0037,-0.023,-0.0311,-0.0272,-0.0304,-0.0421,-0.0418,-0.0472,-0.0474,-0.0476,-0.0477,-0.0478,0,0.0305,0.033,0.0378,0.0427,0.0441,0.0509,0.0585,0.0626,0.0723,0.0832,0.091,0.0835,0.0781,0.0435,0.0097,-0.0223,-0.0247,-0.0401,-0.0457,-0.0409,-0.044,-0.0434,-0.043,-0.0452,-0.0453,-0.0454,-0.0455,0,0.0349,0.0363,0.0403,0.0511,0.0586,0.0689,0.0796,0.0895,0.0981,0.1103,0.1194,0.1151,0.0814,0.0468,0.0026,-0.0195,-0.0354,-0.0429,-0.0374,-0.041,-0.0398,-0.0425,-0.042,-0.0461,-0.0461,-0.046,-0.046,-0.046,0.0383,0.0431,0.0498,0.0596,0.0706,0.085,0.095,0.1096,0.1257,0.1406,0.1341,0.1278,0.0895,0.0288,-0.0062,-0.042,-0.0432,-0.0551,-0.0546,-0.0541,-0.0532,-0.0523,-0.0609,-0.0609,-0.0609,-0.0609,-0.0609,0,0.043,0.0496,0.059,0.0708,0.084,0.0898,0.1092,0.1205,0.1406,0.1486,0.1521,0.1148,0.0748,0.0346,-0.0206,-0.0546,-0.056,-0.0625,-0.0562,-0.0555,-0.0548,-0.0537,-0.0617,-0.0618,-0.0618,-0.0619,0,0,0.0457,0.0547,0.0595,0.0789,0.0908,0.1095,0.1213,0.1402,0.1498,0.1552,0.1503,0.1318,0.0832,0.0446,-0.0011,-0.0299,-0.0341,-0.0358,-0.0326,-0.0192,-0.018,-0.0493,-0.0468,0,0,0,0,0]}],[{"header":{"parameterUnit":"m.s-1","parameterCategory":2,"la1":30.2991,"la2":30.254,"lo1":-89.0895,"lo2":-89.0444,"dy":0.0017,"dx":0.0017,"nx":28,"ny":28,"refTime":"2025-06-16T03:00:00:Z","depth":"4","parameterNumber":2,"parameterNumberName":"U-component_of_CURRENTS"},"data":[0,0,0,0,0,0,0,0,0,0,0,0,0,0,0,0,0,0,0,0,0,0,0,0,0,0,0,0,0,0,0,0,0,0,0,0,0,0,0,0,0,0,0,0,0,0,0,0,0,0,0,0,0,0,0,0,0,0,0.1223,0.1223,0,0.1202,0.1202,0.1201,0.1232,0.1233,0.1235,0.1236,0.1235,0.1233,0.1232,0,0,0,0,0,0,0,0,0,0,0,0,0,0.1177,0.1178,0.1223,0.1223,0.1223,0.1202,0.1202,0.1201,0.1231,0.1233,0.1235,0.1237,0.1235,0.1233,0.1232,0,0,0,0,0,0,0,0,0,0,0,0,0,0.1176,0.1178,0.1223,0.124,0.1241,0.1202,0.1201,0.1201,0.1231,0.1233,0.1235,0.1238,0.1236,0.1234,0.1231,0.1172,0,0,0.1225,0.1224,0,0,0,0,0,0,0,0,0.1176,0.1177,0.1237,0.1238,0.124,0.1226,0.1185,0.1194,0.123,0.123,0.1236,0.1239,0.1235,0.1233,0.1217,0.1172,0.1172,0.1225,0.1223,0.1222,0.1222,0,0,0,0,0,0,0,0.1176,0.1177,0.121,0.1237,0.1239,0.121,0.1213,0.1186,0.1216,0.123,0.1233,0.1238,0.1236,0.1219,0.1217,0.1172,0.1225,0.1223,0.1221,0.122,0.1213,0.1214,0,0,0,0,0,0,0.1192,0.1178,0.121,0.121,0.1219,0.121,0.1213,0.1224,0.1216,0.1219,0.1236,0.124,0.1221,0.122,0.1217,0.1278,0.1222,0.122,0.1219,0.1212,0.1213,0.1214,0,0,0,0,0,0,0.1191,0.1195,0.1211,0.1197,0.1198,0.121,0.1221,0.1223,0.1235,0.1222,0.1224,0.1251,0.1223,0.122,0.1266,0.1274,0.1219,0.1217,0.121,0.1212,0.1214,0.1316,0,0,0,0,0,0,0.119,0.1195,0.1219,0.1198,0.1199,0.1224,0.122,0.1221,0.1235,0.124,0.1234,0.1235,0.1225,0.127,0.1264,0.127,0.1216,0.1209,0.1211,0.1213,0.1311,0.1321,0.133,0,0,0,0,0,0.1188,0.1208,0.1221,0.1225,0.1229,0.1225,0.1223,0.1234,0.1234,0.125,0.1275,0.1237,0.1277,0.127,0.1263,0.1268,0.1208,0.121,0.1213,0.1307,0.1319,0.1329,0,0,0,0,0,0,0.1194,0.1213,0.1226,0.1251,0.1258,0.1234,0.1244,0.1242,0.1265,0.1283,0.1264,0.1268,0.131,0.1273,0.1265,0.1271,0.1228,0.1229,0.1302,0.1313,0.1322,0.1306,0.1214,0,0,0,0,0,0.1208,0.1234,0.124,0.1261,0.1266,0.1255,0.1257,0.1269,0.1279,0.129,0.1294,0.1294,0.1302,0.1303,0.1306,0.1304,0.1315,0.1297,0.1306,0.1314,0.1296,0.1386,0.1403,0.1222,0.1222,0.1222,0,0,0.1213,0.1228,0.1243,0.1265,0.1263,0.1261,0.1262,0.1279,0.1289,0.1285,0.1315,0.1336,0.1315,0.1342,0.135,0.1317,0.1372,0.1317,0.1324,0.1301,0.1391,0.1409,0.1425,0.1224,0.1224,0.1223,0,0,0.1217,0.125,0.1268,0.1273,0.1295,0.1289,0.13,0.1306,0.1329,0.1356,0.1371,0.1415,0.1392,0.1407,0.1397,0.1446,0.1431,0.1432,0.1448,0.1539,0.1555,0.1569,0.1615,0.1632,0.1421,0.1421,0.1421,0,0.1228,0.1247,0.1271,0.1277,0.1282,0.1301,0.1304,0.1316,0.1346,0.1369,0.1383,0.1426,0.1416,0.1454,0.1471,0.1465,0.1506,0.1415,0.1554,0.1568,0.1581,0.1624,0.1642,0.1426,0.1426,0.1425,0.1424,0,0.1224,0.125,0.1255,0.1273,0.1283,0.1294,0.1314,0.1355,0.1379,0.1384,0.1461,0.1496,0.1523,0.152,0.1498,0.1575,0.1572,0.1576,0.1534,0.1606,0.1646,0.1663,0.1434,0.1432,0.143,0.1429,0,0,0.1211,0.1251,0.1253,0.1259,0.1287,0.1284,0.133,0.136,0.138,0.1447,0.1509,0.153,0.1575,0.157,0.1592,0.164,0.1763,0.1637,0.164,0.1693,0.1951,0.1804,0.1808,0.1816,0.1819,0.1822,0.1947,0,0.1202,0.1218,0.1243,0.1246,0.1246,0.1291,0.1298,0.1337,0.1394,0.1467,0.1547,0.1599,0.1587,0.1633,0.1696,0.1757,0.1811,0.1726,0.186,0.1862,0.1734,0.1824,0.1832,0.1959,0.1963,0.1966,0.1968,0,0.1179,0.1194,0.1209,0.1221,0.1222,0.1234,0.1282,0.1302,0.1404,0.148,0.1599,0.1644,0.1758,0.1748,0.1901,0.186,0.1902,0.1935,0.1942,0.1771,0.1746,0.1867,0.1998,0.1996,0.1993,0.1991,0.199,0,0.113,0.1162,0.1178,0.1182,0.1198,0.1231,0.1249,0.1307,0.1368,0.1527,0.1656,0.1739,0.1889,0.1943,0.2005,0.1974,0.2171,0.2144,0.2049,0.2039,0.2089,0.2072,0.2247,0.2247,0.2247,0.2247,0.2246,0,0.109,0.1099,0.1165,0.1158,0.1146,0.1192,0.1227,0.1277,0.1436,0.1505,0.1685,0.1798,0.1955,0.2071,0.2066,0.2117,0.2238,0.2056,0.2069,0.2127,0.2113,0.2101,0.2083,0.2251,0.225,0.2249,0.2249,0,0.1027,0.1076,0.1072,0.111,0.1121,0.1115,0.1228,0.127,0.1463,0.1619,0.1698,0.1929,0.2055,0.2173,0.2273,0.2226,0.2239,0.2223,0.2274,0.2288,0.2025,0.201,0.2116,0.2112,0.2108,0.2105,0.2103,0,0.0999,0.1001,0.1018,0.1014,0.1042,0.1082,0.1102,0.1258,0.1352,0.1628,0.1711,0.1931,0.2044,0.2152,0.2211,0.2248,0.2217,0.222,0.2096,0.2013,0.2016,0.2007,0.1997,0.2098,0.2097,0.2096,0.2095,0,0.0923,0.0942,0.0926,0.091,0.0937,0.0967,0.105,0.1136,0.1319,0.1547,0.1698,0.1782,0.1972,0.203,0.2136,0.2115,0.2202,0.2184,0.2189,0.2073,0.1992,0.1997,0.1991,0.2083,0.2085,0.2086,0.2087,0,0.0851,0.0814,0.0797,0.0783,0.0813,0.084,0.0899,0.1034,0.1149,0.1494,0.1477,0.1735,0.19,0.196,0.1987,0.2034,0.1981,0.1896,0.1915,0.1929,0.1807,0.1674,0.1687,0,0,0,0,0,0.0775,0.0722,0.0683,0.0639,0.0687,0.0716,0.0849,0.0947,0.1163,0.1234,0.1376,0.1499,0.1631,0.1727,0.174,0.1861,0.1961,0.1859,0.1864,0.2019,0.2032,0.1903,0,0,0,0,0,0,0.0703,0.0655,0.0628,0.0559,0.0546,0.0575,0.0672,0.0807,0.0882,0.1117,0.1216,0.138,0.1545,0.1623,0.1704,0.1734,0.1698,0.1995,0.199,0.2011,0.2023,0.2034,0.1906,0,0,0,0,0]},{"header":{"parameterUnit":"m.s-1","parameterCategory":2,"la1":30.2991,"la2":30.254,"lo1":-89.0895,"lo2":-89.0444,"dy":0.0017,"dx":0.0017,"nx":28,"ny":28,"refTime":"2025-06-16T03:00:00:Z","depth":"4","parameterNumber":3,"parameterNumberName":"V-component_of_CURRENTS"},"data":[0,0,0,0,0,0,0,0,0,0,0,0,0,0,0,0,0,0,0,0,0,0,0,0,0,0,0,0,0,0,0,0,0,0,0,0,0,0,0,0,0,0,0,0,0,0,0,0,0,0,0,0,0,0,0,0,0,0,-0.0063,-0.0064,0,-0.0091,-0.0091,-0.0092,-0.0115,-0.0115,-0.0115,-0.0115,-0.0166,-0.0167,-0.0168,0,0,0,0,0,0,0,0,0,0,0,0,0,-0.0049,-0.0049,-0.0063,-0.0064,-0.0064,-0.0091,-0.0091,-0.0092,-0.0115,-0.0115,-0.0115,-0.0115,-0.0165,-0.0166,-0.0168,0,0,0,0,0,0,0,0,0,0,0,0,0,-0.0064,-0.0049,-0.0063,-0.0079,-0.008,-0.0091,-0.0091,-0.0092,-0.0114,-0.0115,-0.0115,-0.0116,-0.0165,-0.0166,-0.0168,-0.0171,0,0,-0.0173,-0.0174,0,0,0,0,0,0,0,0,-0.0063,-0.0064,-0.0076,-0.0078,-0.008,-0.01,-0.0105,-0.0119,-0.0114,-0.0101,-0.0115,-0.0116,-0.0145,-0.0149,-0.0153,-0.0173,-0.0175,-0.0173,-0.0174,-0.0175,-0.0175,0,0,0,0,0,0,0,-0.0062,-0.0063,-0.0074,-0.0076,-0.0079,-0.0091,-0.0093,-0.0108,-0.0121,-0.0103,-0.0104,-0.0107,-0.0147,-0.0151,-0.0154,-0.0176,-0.0173,-0.0175,-0.0176,-0.0176,-0.0224,-0.0224,0,0,0,0,0,0,-0.0057,-0.0062,-0.0073,-0.0075,-0.0072,-0.0091,-0.0093,-0.0093,-0.0121,-0.0125,-0.0107,-0.0108,-0.0148,-0.0152,-0.0156,-0.0172,-0.0175,-0.0176,-0.0177,-0.0224,-0.0224,-0.0224,0,0,0,0,0,0,-0.0056,-0.0058,-0.0072,-0.007,-0.0072,-0.009,-0.009,-0.0093,-0.0099,-0.0124,-0.0129,-0.011,-0.0148,-0.0154,-0.0171,-0.0173,-0.0177,-0.0179,-0.0223,-0.0224,-0.0224,-0.0196,0,0,0,0,0,0,-0.0056,-0.0057,-0.0056,-0.0069,-0.0072,-0.0077,-0.009,-0.0093,-0.0101,-0.0103,-0.0128,-0.0133,-0.0149,-0.0169,-0.0173,-0.0176,-0.018,-0.0223,-0.0223,-0.0224,-0.0197,-0.0195,-0.0194,0,0,0,0,0,-0.0055,-0.0048,-0.0056,-0.0057,-0.007,-0.0076,-0.0079,-0.0093,-0.01,-0.0101,-0.0121,-0.0132,-0.0175,-0.017,-0.0175,-0.0178,-0.0223,-0.0223,-0.0224,-0.0197,-0.0196,-0.0195,0,0,0,0,0,0,-0.004,-0.0051,-0.0059,-0.0056,-0.0066,-0.008,-0.0081,-0.0091,-0.0106,-0.0109,-0.0133,-0.0139,-0.0158,-0.0172,-0.0166,-0.0195,-0.0202,-0.0204,-0.018,-0.0179,-0.0178,-0.0156,-0.0181,0,0,0,0,0,-0.0036,-0.0036,-0.0049,-0.0047,-0.005,-0.0065,-0.007,-0.008,-0.0094,-0.0101,-0.0119,-0.0141,-0.0164,-0.0173,-0.0193,-0.0205,-0.0232,-0.0212,-0.0211,-0.021,-0.0196,-0.0251,-0.0253,-0.0226,-0.0226,-0.0226,0,0,-0.003,-0.0036,-0.0036,-0.0044,-0.0052,-0.0048,-0.0069,-0.0073,-0.007,-0.0104,-0.0108,-0.0138,-0.0167,-0.0183,-0.0192,-0.0194,-0.0233,-0.0211,-0.0209,-0.0196,-0.0252,-0.0254,-0.0257,-0.0227,-0.0226,-0.0226,0,0,-0.0013,-0.0021,-0.0014,-0.0018,-0.0029,-0.0036,-0.0036,-0.005,-0.0058,-0.0067,-0.0096,-0.0124,-0.0149,-0.0173,-0.0188,-0.0192,-0.0227,-0.0204,-0.0177,-0.0231,-0.0233,-0.0236,-0.0277,-0.0283,-0.0201,-0.0201,-0.0201,0,-0.0005,0.0005,-0.0013,-0.0005,-0.0,-0.0027,-0.0011,-0.0024,-0.0043,-0.0051,-0.0063,-0.0117,-0.0142,-0.0169,-0.017,-0.0188,-0.0222,-0.0179,-0.0229,-0.0232,-0.0235,-0.0277,-0.0284,-0.02,-0.02,-0.02,-0.02,0,0.0019,0.0028,0.0033,0.0037,0.0038,0.0046,0.0031,0.0024,0.001,-0.0009,-0.004,-0.0082,-0.0115,-0.0132,-0.0149,-0.0185,-0.0203,-0.0224,-0.023,-0.0236,-0.028,-0.0288,-0.0198,-0.0198,-0.0199,-0.0199,0,0,0.0037,0.005,0.0051,0.007,0.0064,0.0073,0.0073,0.0067,0.0069,0.0029,0.0016,-0.003,-0.0066,-0.0085,-0.0124,-0.0164,-0.0218,-0.0197,-0.02,-0.0232,-0.0334,-0.032,-0.0328,-0.0255,-0.0256,-0.0257,-0.0357,0,0.0064,0.0096,0.0093,0.013,0.015,0.0134,0.0145,0.0131,0.0106,0.0081,0.0018,-0.0016,-0.0046,-0.0071,-0.0116,-0.019,-0.0238,-0.0189,-0.0327,-0.033,-0.0314,-0.0336,-0.0261,-0.0363,-0.0365,-0.0366,-0.0367,0,0.0089,0.0111,0.0151,0.0192,0.02,0.0218,0.0231,0.0235,0.0185,0.016,0.0103,0.0038,-0.0029,-0.0062,-0.0185,-0.0155,-0.0237,-0.0297,-0.0304,-0.0301,-0.0332,-0.0356,-0.0382,-0.0381,-0.038,-0.0379,-0.0378,0,0.0116,0.0156,0.0195,0.0205,0.0237,0.0258,0.0277,0.0257,0.0264,0.0194,0.0169,0.0076,0.0026,-0.0086,-0.021,-0.0209,-0.0351,-0.0371,-0.0438,-0.0438,-0.0432,-0.0428,-0.047,-0.047,-0.047,-0.047,-0.0469,0,0.0147,0.018,0.0215,0.0236,0.0298,0.0304,0.0351,0.0344,0.0323,0.0322,0.0209,0.0163,0.0016,-0.0093,-0.0207,-0.0338,-0.0357,-0.0431,-0.0464,-0.0419,-0.0412,-0.0439,-0.0433,-0.0473,-0.0473,-0.0472,-0.0471,0,0.0165,0.0183,0.0234,0.0283,0.0311,0.0352,0.0416,0.0441,0.0407,0.0392,0.0361,0.0228,0.0085,-0.0064,-0.0245,-0.0322,-0.0461,-0.051,-0.044,-0.0468,-0.0514,-0.0506,-0.0591,-0.0592,-0.0592,-0.0592,-0.0592,0,0.0175,0.0199,0.0271,0.0316,0.0344,0.0413,0.0467,0.0481,0.0497,0.0425,0.0408,0.026,0.0155,-0.0074,-0.0242,-0.0457,-0.0488,-0.0553,-0.0537,-0.0503,-0.0527,-0.0519,-0.0511,-0.0593,-0.0593,-0.0593,-0.0593,0,0.019,0.021,0.0252,0.0349,0.0417,0.0494,0.0558,0.0573,0.057,0.0543,0.0448,0.0293,0.0134,-0.0063,-0.0226,-0.0388,-0.0503,-0.0557,-0.0557,-0.0543,-0.0507,-0.0528,-0.052,-0.0594,-0.0594,-0.0594,-0.0594,0,0.0197,0.0225,0.0283,0.0375,0.0468,0.0538,0.0574,0.0596,0.061,0.0539,0.0505,0.0308,0.0207,-0.0032,-0.0193,-0.0334,-0.0374,-0.0409,-0.0418,-0.0419,-0.0338,-0.0264,-0.0304,0,0,0,0,0,0.0202,0.0235,0.0314,0.0405,0.0504,0.0556,0.0621,0.064,0.0635,0.0594,0.0558,0.0403,0.0149,0.0015,-0.0121,-0.0219,-0.0413,-0.0386,-0.046,-0.06,-0.0599,-0.0532,0,0,0,0,0,0,0.0197,0.0258,0.0301,0.042,0.0492,0.0589,0.0629,0.0626,0.0602,0.0574,0.0444,0.0381,0.0133,0.0239,-0.0119,-0.017,-0.0234,-0.0505,-0.0508,-0.0601,-0.06,-0.0599,-0.0529,0,0,0,0,0]}]]